Tracking 17154 objects as of 3-August-2015
HD Live streaming from Space Station

NAVSTAR 28 (USA 85)

Track NAVSTAR 28 (USA 85) now!
NAVSTAR 28 (USA 85) is classified as:


NORAD ID: 22231
Int'l Code: 1992-079A
Perigee: 19,962.1 km
Apogee: 20,416.8 km
Inclination: 55.5 °
Period: 718.0 minutes
Semi major axis: 26560 km
RCS: 3.981 m2 (large)
Launch date: November 22, 1992
Source: United States (US)
PRN:
Your satellite tracking list
Your tracking list is empty





NASA's NSSDC Master Catalog

Two Line Element Set (TLE):
1 22231U 92079A   15214.92037093  .00000030  00000-0  00000+0 0  9995
2 22231 055.5281 254.1255 0085596 283.7613 020.2282 02.00562335166268

Source of the keplerian elements: AFSPC

N2YO: 316